www.pogodaiklimat.ru

Погода и климат >> Архив погоды >> Россия >> Алтай >> Чемал


АРХИВ ПОГОДЫ в Чемале

Время (UTC), дата Ветер
(напр.,м/с)
 
Видим.   Явления Облачность Т
(С)
Тd
(С)
f
(%)
Тe
(С)
Тes
(С)
Комфортность P
(гПа)
Po
(гПа)
Тmin
(С)
Tmax
(С)
R
(мм)
R24
(мм)
S
(см)
00 14.03 штиль 0 50 км ясно -6.2 -8.0 87 -7 -7 1033.6 980.0 -6.2 0
03 14.03 ЮВ 1 50 км 3/0
[Ci fib]
-0.5 -6.8 62 -2 +2 1032.7 980.2 -6.7
06 14.03 СЗ 1 50 км 6/0
[Ci sp]
+11.0 -6.8 28 +11 +20 1028.2 978.0
09 14.03 ЮЗ 1 50 км 8/0
[Cs]
+14.6 -8.4 20 +15 +20 1025.1 975.6
12 14.03 штиль 0 50 км 8/0
[Cs]
+6.6 -3.9 47 +6 +6 1026.2 975.3 +14.7
15 14.03 штиль 0 50 км 4/0
[Ci fib]
+0.7 -4.7 67 0 0 1028.0 976.0
18 14.03 ЮВ 1 50 км ясно -1.0 -5.3 73 -3 -3 1027.4 975.1
21 14.03 ЮВ 3 50 км ясно -1.0 -6.0 69 -6 -6 1026.2 974.0
00 15.03 В 2 50 км ясно -2.2 -6.6 72 -6 -6 1026.1 973.6 -2.2 0
03 15.03 В 4 50 км ясно +0.5 -6.5 59 -4 -2 1024.3 972.5 -2.6
06 15.03 Ю 2 50 км ясно +13.1 -11.8 16 +13 +21 1018.7 969.3
09 15.03 ЮЗ 1 50 км ясно +18.5 -13.0 11 +20 +25 1014.8 966.5
12 15.03 С 1 50 км 1/0
[Ci fib]
+10.5 -10.0 23 +11 +11 1016.2 966.5 +18.9
15 15.03 В 3 50 км ясно +6.1 -7.9 36 +4 +4 1018.3 967.7
18 15.03 штиль 0 50 км ясно +0.4 -6.9 58 -0 -0 1019.4 967.8
21 15.03 ЮВ 1 50 км 3/3 1000 м
[Sc]
+1.8 -7.9 49 +1 +1 1018.9 967.6
00 16.03 Ю 1 50 км 8/3 1000 м
[Sc Ac trans]
+1.3 -8.1 50 0 0 1018.9 967.5 +0.2 0
03 16.03 В 3 50 км 10/6 1000 м
[Sc Ac trans]
+5.2 -9.1 35 +3 +3 1016.1 965.4
06 16.03 ЮВ 2 50 км 10/10 1000 м
[Sc]
+12.1 -10.2 20 +12 +12 1012.9 963.6
09 16.03 З 3
{10}
50 км 10/10 1000 м
[Sc]
+4.8 -2.5 59 +2 +2 1015.8 965.2
12 16.03 З 2 50 км 9/9 600 м
[Sc]
+2.0 -2.5 72 -1 -1 1019.7 968.4 +14.0
15 16.03 штиль 0 10 км слаб. ливневой снег 8/8 600 м
[Cb cap]
-0.1 -2.8 82 -1 -1 1021.2 969.4
18 16.03 штиль 0 50 км {ливн. осадки} 9/9 1000 м
[Sc]
-1.4 -3.2 88 -3 -3 1021.0 969.0
21 16.03 З 2 50 км 10/10 1000 м
[Sc]
-2.4 -6.1 76 -6 -6 1021.9 969.7
00 17.03 СЗ 1 50 км 10/10 1000 м
[Sc]
-3.1 -6.7 76 -5 -5 1021.8 969.4 -3.1 0.0 0
03 17.03 З 2 20 км 10/10 300 м
[St]
-2.4 -6.6 73 -6 -6 1021.7 969.4
06 17.03 СЗ 3 50 км 8/8 300 м
[St]
+1.4 -7.2 53 -2 -1 1019.8 968.3
09 17.03 СЗ 3 50 км 10/10 1000 м
[Cb cap]
+0.1 -8.2 54 -4 -4 1020.0 968.2
12 17.03 СЗ 2
{10}
10 км слаб. ливневой снег 10/10 600 м
[Cb cap]
-4.0 -6.9 80 -8 -8 1024.5 971.5 +1.4 0.0
15 17.03 СЗ 1 50 км {ливн. осадки} 10/0
[As trans]
-5.4 -8.7 78 -8 -8 1026.7 973.6
18 17.03 штиль 0 50 км {ливн. осадки} 10/0
[As trans]
-6.2 -8.6 83 -7 -7 1027.7 974.2
21 17.03 СЗ 1 20 км слаб. снег 10/0
[As op]
-8.0 -10.4 83 -10 -10 1028.9 975.2
00 18.03 штиль 0 20 км слаб. снег 10/4 300 м
[St As op]
-9.2 -11.0 87 -10 -10 1031.3 977.2 -9.5 1 <0.5
03 18.03 С 1 20 км в посл. час ливневой снег 6/6 300 м
[Cb cap]
-6.2 -11.5 66 -8 -7 1032.9 979.3 -9.5
06 18.03 СЗ 2 20 км {ливн. осадки} 8/8 600 м
[Cb cap]
-3.1 -11.4 53 -7 -5 1032.6 979.6
09 18.03 З 3 20 км 8/8 600 м
[Sc diur, vesp]
-0.7 -12.6 40 -5 -4 1031.7 979.2
12 18.03 СЗ 2 50 км 6/6 1000 м
[Sc diur, vesp]
-3.2 -11.1 54 -7 -7 1033.3 980.3 -0.4 0.0
15 18.03 ЮЗ 1 50 км ясно -6.3 -10.9 70 -8 -8 1035.1 981.4
18 18.03 штиль 0 50 км ясно -10.0 -12.2 84 -10 -10 1035.8 981.3
21 18.03 штиль 0 50 км 3/0
[Ac trans]
-11.7 -13.6 86 -12 -12 1036.7 981.5
00 19.03 Ю 1 50 км ясно -12.5 -14.9 82 -15 -15 1036.1 981.0 -12.9 0
03 19.03 Ю 1 50 км 4/0
[Ci fib]
-8.2 -13.1 68 -10 -6 1034.1 979.9 -13.2
06 19.03 СЗ 1 50 км 3/0
[Ci fib]
+0.7 -14.4 31 -0 +10 1029.5 977.2
09 19.03 СЗ 2 50 км 8/0
[Ac trans]
+5.0 -13.7 24 +4 +6 1026.1 975.0
12 19.03 СЗ 2 50 км 10/0
[Ac und]
+0.8 -11.0 41 -2 -2 1027.8 975.8 +5.1
15 19.03 З 2 50 км 10/0
[Ac und]
-2.4 -11.1 51 -6 -6 1030.9 978.1
18 19.03 З 1 50 км 10/0
[Ac und]
-3.7 -10.9 57 -5 -5 1032.5 979.4
21 19.03 З 1 50 км 10/0
[Ac trans]
-4.6 -10.9 61 -7 -7 1033.2 979.9
00 20.03 штиль 0 50 км 1/0
[Ac trans]
-8.5 -11.6 78 -9 -9 1035.3 981.2 -8.5 0
03 20.03 ЮВ 1 50 км 3/0
[Ci fib]
-5.3 -11.0 64 -7 -3 1035.4 981.9 -9.2
06 20.03 З 1 50 км 1/0
[Ci fib]
+1.6 -10.7 40 +1 +11 опасность
простуды
1031.8 979.7
09 20.03 СЗ 3 50 км 1/0
[Ci fib]
+4.8 -10.7 32 +2 +6 1029.3 978.0
12 20.03 З 2 50 км ясно +1.6 -10.0 42 -1 -1 1030.9 978.9 +5.1
15 20.03 ЮЗ 1 50 км ясно -2.1 -9.5 57 -4 -4 1032.9 980.1
18 20.03 штиль 0 50 км ясно -6.9 -9.7 80 -8 -8 1034.2 980.4

 

Местоположение метеостанции Чемал (Алтай, Россия): широта 51.38 долгота 86.02 высота над уровнем моря 419 м.

В архиве по умолчанию представлена погода в Чемале за последнюю неделю. Архивные данные за месяц целиком и за предыдущие месяцы, начиная с января 2011 года, Вы можете получить, выбрав интересующий диапазон дат из раскрывающегося списка и нажав кнопку "Ввод!".


*Определитесь, кто Вы:
робот инопланетянин человек

Внимание! Время в таблицах - всемирное. Для получения местного времени необходимо прибавить поправку, которая равна 7 ч.

Смотрите также архив погоды в соседних городах и на ближайших метеорологических станциях:

Погода в Шебалино (Алтай, Россия) (25 км)
Погода в Кызыл-Озеке (Алтай, Россия) (58 км)
Погода в Горно-Алтайске (Алтай, Россия) (67 км)
Погода в Онгудае (Алтай, Россия) (70 км)
Погода в Чое (Алтай, Россия) (77 км)
Погода в Белокурихе (Алтайский край, Россия) (98 км)
Погода в Усть-Кане (Алтай, Россия) (102 км)
Погода в Семинском перевале (Алтай, Россия) (106 км)
Погода в Яйлю (Алтай, Россия) (118 км)
Погода в Солонешном (Алтайский край, Россия) (120 км)

Пояснения к столбцам:

Ветер - указаны скорость ветра в м/с - средняя за 10 мин, порывы в срок и между сроками (в фигурных скобках) и направление, откуда дует ветер: С - северный, СВ - северо-восточный, В - восточный, ЮВ - юго-восточный, Ю - южный, ЮЗ - юго-западный, З - западный, СЗ - северо-западный.
Видимость - горизонтальная дальность видимости в метрах или километрах. При видимости от 1 до 10 км при отсутствии осадков обычно наблюдается дымка, при ухудшении видимости до 1 км и менее - туман. В сухую погоду видимость может ухудшаться дымом, пылью или мглою.
Явления - указаны атмосферные явления, наблюдавшиеся в срок или в последний час перед сроком; фигурными скобками обозначены явления, наблюдавшиеся между сроками (за 1-3 часа до срока); квадратными скобками обозначены град или гололедные отложения с указанием их диаметра в мм.
Облачность - указаны через наклонную черту общая и нижняя облачность в баллах и высота нижней границы облаков в метрах; квадратными скобками обозначены формы облаков: Ci - перистые, Cs - перисто-слоистые, Cc - перисто-кучевые, Ac - высококучевые, As - высокослоистые, Sc - слоисто-кучевые, Ns - слоисто-дождевые, Cu - кучевые, Cb - кучево-дождевые. Подробнее классификацию облаков см. в Атласе облаков (PDF).
T - Температура воздуха - температура, измеренная на высоте 2 м над землей.
Td - Температура точки росы - температура, при понижении до которой содержащийся в воздухе водяной пар достигнет насыщения.
f - Относительная влажность воздуха - влажноcть воздуха, измеренная на высоте 2 м над землей.
Te - Эффективная температура - температура, которую ощущает одетый по сезону человек в тени. Характеристика душности погоды. При расчете учитывается влияние влажности воздуха и скорости ветра на теплоощущения человека.
Tes - Эффективная температура на солнце - температура, которую ощущает человек, с поправкой на солнечный нагрев. Характеристика знойности погоды. Зависит от высоты солнца над горизонтом, облачности и скорости ветра. Ночью, в пасмурную погоду, а также при ветре 12 м/с и более поправка равна нулю.
P - Атмосферное давление - приведенное к уровню моря атмосферное давление.
Po - Атмосферное давление - измеренное на уровне метеостанции атмосферное давление.
Tmin - Минимальная температура - минимум температуры воздуха на высоте 2 м над землей.
Tmax - Максимальная температура - максимум температуры воздуха на высоте 2 м над землей.
R - Количество осадков - Количество выпавших осадков за период времени, мм. При наведении курсора мыши на число - период времени, за который выпало указанное количество осадков.
R24 - Количество осадков - Количество выпавших осадков за 24 часа, мм.
S - Снежный покров - Высота снежного покрова, см. При наведении курсора мыши на число - состояние снежного покрова и степень покрытия местности в баллах.